User: anonymous   Login
Location: Newark
(44.2003°N, 3.2583°E)
Time: 22:09:11
(UTC+00:00)
Language:

Vanguard 3 - Orbit

View from above orbital plane
View from above orbital plane
View from above satellite
View from above satellite

Ground track
Ground track

The orbit data is extracted from the following two-line orbital elements,

1    20U 59007A   19291.19657856  .00000055  00000-0  30308-4 0  9990
2    20  33.3443 328.6455 1666261  56.3518 318.5076 11.55688600202490
Epoch (UTC): 18 October 2019 04:43:04
Eccentricity: 0.1666261
inclination: 33.3443°
perigee height: 508 km
apogee height: 3262 km
right ascension of ascending node: 328.6455°
argument of perigee: 56.3518°
revolutions per day: 11.55688600
mean anomaly at epoch: 318.5076°
orbit number at epoch: 20249

The dashed part of the orbit path shows where the satellite is in the earth's shadow,  

DLR